{"data":{"norad_id":66026,"epoch":"2026-05-25T04:00:03.998880Z","epoch_age_seconds":50862,"freshness":"FRESH","line1":"1 66026U 25232X   26145.16671295  .00003902  00000+0  12650-3 0  9999","line2":"2 66026  53.1589 108.8496 0001081  80.0979 225.8737 15.34413898  5850","mean_motion":15.34413898,"eccentricity":0.0001081,"inclination_deg":53.1589,"raan_deg":108.8496,"arg_perigee_deg":80.0979,"mean_anomaly_deg":225.8737,"bstar":0.0001265,"rev_number":585,"period_min":93.846908052445,"perigee_km":461.92244236939,"apogee_km":463.40142309865,"semimajor_km":6840.798932734,"source":"CELESTRAK","updated_at":"2026-05-25T13:38:21.018011Z"}}